Location: Catstown
(52.4386°N, 7.2633°W)
Time: 11:00:03
(UTC+00:00)

ARGOS - Visible Passes

Search period start: 16 January 2021 00:00
Search period end: 26 January 2021 00:00
Orbit: 820 x 835 km, 98.4° (Epoch: 15 January)

Date Brightness Start Highest point End Pass type
(mag) Time Alt. Az. Time Alt. Az. Time Alt. Az.
16 Jan 5.9 07:20:25 10° NE 07:24:23 20° E 07:28:19 10° SE visible
16 Jan 3.2 18:48:57 10° SE 18:54:09 54° ENE 18:59:23 10° N visible
16 Jan 4.9 20:30:06 10° SSW 20:34:43 29° W 20:39:22 10° NNW visible
17 Jan 6.1 07:02:31 10° NE 07:05:28 15° E 07:08:25 10° ESE visible
17 Jan 3.5 18:30:39 10° SE 18:35:37 40° ENE 18:40:37 10° N visible
17 Jan 4.4 20:10:55 10° SSW 20:15:55 39° W 20:20:57 10° NNW visible
18 Jan 6.6 06:45:56 10° ENE 06:46:30 10° E 06:47:03 10° E visible
18 Jan 3.9 18:12:30 10° ESE 18:17:08 31° ENE 18:21:46 10° N visible
18 Jan 3.8 19:51:56 10° S 19:57:10 54° W 20:02:27 10° NNW visible
19 Jan 4.2 17:54:31 10° ESE 17:58:41 24° NE 18:02:52 10° N visible
19 Jan 3.3 19:33:06 10° S 19:38:28 74° WSW 19:43:52 10° NNW visible
19 Jan 6.0 21:17:11 10° WSW 21:19:42 13° W 21:22:14 10° NW visible
20 Jan 5.3 07:45:37 10° NNE 07:50:25 31° E 07:55:12 10° SSE visible
20 Jan 4.5 17:36:44 10° E 17:40:18 18° NE 17:43:52 10° N visible
20 Jan 3.0 19:14:27 10° SSE 19:19:49 82° ENE 19:25:14 10° NNW visible
20 Jan 5.6 20:57:05 10° SW 21:00:46 19° W 21:04:29 10° NW visible
21 Jan 5.8 07:27:19 10° NE 07:31:36 23° E 07:35:50 10° SE visible
21 Jan 3.1 18:55:57 10° SSE 19:01:13 61° ENE 19:06:32 10° N visible
21 Jan 5.1 20:37:30 10° SSW 20:41:54 25° W 20:46:20 10° NW visible
22 Jan 6.0 07:09:14 10° NE 07:12:42 17° E 07:16:08 10° SE visible
22 Jan 3.4 18:37:35 10° SE 18:42:39 45° ENE 18:47:47 10° N visible
22 Jan 4.6 20:18:13 10° SSW 20:23:05 34° W 20:27:59 10° NNW visible
23 Jan 6.3 06:51:43 10° ENE 06:53:45 12° E 06:55:47 10° ESE visible
23 Jan 3.7 18:19:22 10° SE 18:24:09 34° ENE 18:28:59 10° N visible
23 Jan 4.1 19:59:09 10° S 20:04:18 47° W 20:09:31 10° NNW visible
24 Jan 4.1 18:01:19 10° ESE 18:05:42 26° ENE 18:10:06 10° N visible
24 Jan 3.5 19:40:16 10° S 19:45:35 65° WSW 19:50:58 10° NNW visible
24 Jan 6.1 21:25:13 10° W 21:26:56 11° W 21:28:40 10° WNW visible
25 Jan 4.4 17:43:27 10° E 17:47:17 20° NE 17:51:09 10° N visible
25 Jan 3.1 19:21:32 10° SSE 19:26:55 88° WSW 19:32:21 10° NNW visible
25 Jan 5.8 21:04:42 10° SW 21:07:59 16° W 21:11:17 10° NW visible
